DELTA 1 DEB, 21354

Orbit data source: Space-Track

DELTA 1 DEB, 21354 is space debris in SSO originally from a launch on Thu, 12 Jun 1975 UTC launched from the Air Force Western Test Range (AFWTR). Debris objects in space refer to the collection of defunct objects orbiting the Earth. Examples of debris include non-operational satellites, rocket bodies, and fragments generated from explosions, collisions, or faulty payload assembly.

Loading next visibility...
Identifier
21354, 1975-052BY
Orbit
SSO
Country
Flag of USUS
Related business
Manufacturer
Unknown
Mission
Spacecraft
Bus & Motor
Unknown
Mass
Unknown
Launch date (UTC)
1975-06-12 (51 years ago)
Launch vehicle
Unknown
Launch site
Air Force Western Test Range (AFWTR)
Object type
Payload
Rocket body
Debris
Shape & HBR
Unknown shape, 0.2 m
Radar Cross Section
Small (<0.1 m²)

Expand to show TLE details & history
Last TLE update: 15 hours ago

TLE from 15 hours ago
0 DELTA 1 DEB
1 21354U 75052BY  25350.31593457  .00002005  00000-0  37223-2 0  9992
2 21354  99.5124 266.7849 0228600  44.8135  74.8272 13.31083440664432
Epoch: 2025-12-16T07:34Z
TLE epoch observation values (Epoch: 2025-12-16T07:34:56.746Z)
Latitude
56.6788°
Longitude
-97.46384°
Altitude
1,110.756 km
Speed
7.323 km/s
True Right ascension
06h 45m 53s
True Declination
56° 31' 42"
Sunlit
Object was in full shadow at epoch
Visualization orbit readout
Latitude
Unknown
Longitude
Unknown
Altitude
Unknown
Speed
Unknown
Apparent Right ascension
Unknown
Apparent Declination
Unknown
Sunlit
N/A
Visualization observer readout
Local Sidereal Time
21:34:44
Azimuth
Unknown
Elevation
Unknown
Doppler factor
Unknown
Orbital elements
Apogee altitude
1,311.859 km
Perigee altitude
968.13 km
Semi-major axis
7,518.132 km
Eccentricity
0.02286
Inclination
99.5124°
RAAN
266.7849°
Arg. of periapsis
44.8135°
True anomaly
77.37365°
Mean anomaly
74.8272°
Eccentric anomaly
76.09862°
Mean motion
3.32949 °/min
Orbital period
108.12 mins
BSTAR
0.0037223
Loading maneuver chart data...
Computing Atmospheric mass density...
Loading historical data...
Loading historical data...
Loading historical data...
Loading historical data...
Loading historical data...
Loading historical data...
Loading historical data...

Documentation

Showing up to 5 results
|